Wind_Speed
17 17 17 16 17 18 18 19 18 16 15 17 16 13 12 8 7 13 12 11 11 12 4 6 7 8 13 19 22 22 17 21 27 26 23 24 21 20 25 26 26 18 14 18 17
19 18 17 18 19 19 20 20 20 19 19 17 16 14 11 10 10 8 9 8 3 2 3 6 7 8 16 17 23 19 16 27 25 21 24 28 19 19 24 25 27 15 12 14 15
20 18 18 19 20 21 21 22 23 20 20 19 18 16 9 7 11 4 4 1 4 3 5 7 9 10 16 20 24 24 22 21 27 30 27 20 25 18 23 21 25 24 18 17 16
19 18 17 18 20 22 23 24 25 22 20 18 14 7 5 4 3 3 3 2 5 4 5 6 9 14 15 17 21 24 28 25 32 27 22 19 19 20 26 29 21 29 23 24 19
19 18 17 17 20 22 23 25 27 22 17 13 9 5 5 4 3 5 3 6 4 3 7 8 10 11 16 16 18 20 23 27 25 25 21 22 20 23 23 17 9 8 9 18 18
18 17 16 16 19 22 23 24 25 19 14 11 7 5 4 0 2 2 2 5 6 7 8 8 10 11 16 16 16 19 24 18 25 27 27 16 22 25 22 24 18 11 9 14 20
20 16 16 16 18 20 22 24 23 13 10 10 6 8 2 5 0 3 5 6 6 10 10 9 9 10 8 13 19 17 20 16 27 24 27 24 21 26 29 25 21 15 15 18 19
24 17 15 15 17 19 21 24 19 7 8 8 4 1 2 1 3 4 6 7 8 9 12 8 8 14 15 17 8 14 18 18 23 25 25 24 26 25 30 29 30 24 17 15 15
30 19 12 14 16 18 21 17 16 6 7 5 9 4 4 5 4 6 5 6 5 4 10 8 10 15 14 13 15 18 16 23 25 28 27 26 22 23 32 31 25 26 22 18 13
33 19 11 14 16 17 21 16 13 7 6 5 7 7 4 7 11 8 5 4 5 3 8 11 14 14 13 13 15 10 21 19 23 23 27 30 24 23 30 37 30 27 29 23 20
33 17 11 14 17 15 15 15 9 4 8 6 5 6 5 11 5 2 4 4 5 7 12 8 11 14 16 12 23 12 15 13 12 17 22 22 25 25 16 25 25 31 24 24 22
33 15 11 15 16 15 10 13 11 8 9 7 4 6 6 8 11 4 3 8 7 12 6 7 12 15 8 10 15 13 13 16 14 10 7 15 23 26 25 20 23 27 29 30 24
31 13 11 15 11 14 7 13 9 5 8 9 3 5 5 9 10 7 5 10 12 13 10 12 12 7 7 13 12 14 17 16 17 11 16 15 18 22 26 25 28 24 30 26 26
29 10 10 14 9 12 11 14 9 3 4 5 5 2 6 12 2 8 11 11 13 14 11 12 16 13 9 9 17 15 15 13 14 11 13 20 12 23 25 25 24 28 25 29 28
28 9 10 12 10 14 14 12 4 1 3 7 2 5 10 10 12 4 5 8 16 13 11 12 8 8 12 13 11 14 7 11 15 15 16 17 12 17 28 25 26 25 31 26 30
25 9 10 12 8 15 13 9 2 6 5 8 12 17 14 7 2 5 6 8 13 13 16 20 17 11 11 9 6 12 11 14 14 14 13 19 13 18 25 29 27 27 36 32 32
23 9 8 9 13 14 10 7 6 4 15 10 20 17 13 12 10 3 9 12 7 7 13 15 19 18 13 14 12 11 15 10 10 11 13 19 13 21 22 27 30 29 37 37 34
23 7 8 7 14 13 8 10 5 12 12 18 16 16 7 9 11 16 15 15 14 12 12 13 8 18 15 19 14 11 15 9 6 10 13 17 16 16 18 11 34 36 39 37 37
17 7 4 14 14 10 13 4 6 10 14 16 17 11 12 9 7 10 19 17 12 11 8 7 5 1 11 16 19 16 15 14 8 16 11 12 11 17 15 14 24 30 39 36 37
16 5 4 15 11 7 6 3 8 7 13 12 15 8 17 19 11 16 13 7 9 6 12 9 8 6 11 8 17 16 10 10 8 10 13 14 21 11 18 15 14 25 31 38 36
13 9 6 15 10 10 5 7 12 13 11 9 15 17 18 15 13 15 6 14 10 10 11 12 9 7 9 11 15 12 15 15 14 12 10 12 12 15 16 19 19 23 37 40 36
12 6 10 15 12 10 5 9 8 12 15 13 10 16 16 18 18 7 7 4 10 11 5 10 7 11 17 12 15 10 16 18 11 17 13 16 15 5 18 20 18 24 38 41 40
14 11 6 15 6 8 13 14 7 11 13 14 11 15 18 18 9 8 7 4 7 4 6 4 7 8 12 6 7 14 17 19 19 17 19 14 16 15 17 15 24 31 40 42 39
13 6 10 9 4 12 14 11 12 11 14 12 17 17 16 18 16 10 11 5 11 11 16 6 11 13 13 8 5 15 24 24 23 16 19 19 23 13 14 14 22 35 39 42 36
11 7 6 7 13 15 14 14 16 15 11 18 10 16 20 19 15 3 7 5 11 16 7 6 7 16 21 24 14 18 24 31 28 25 24 24 20 17 22 24 11 38 43 44 38
12 9 13 20 13 14 5 12 14 17 18 17 15 20 21 18 17 25 13 1 6 5 9 5 4 13 22 21 21 14 20 29 31 27 27 29 13 5 35 42 23 26 45 42 42
14 11 11 14 12 12 9 13 19 19 12 13 18 19 20 22 28 25 4 9 10 7 11 6 5 4 7 6 8 10 19 27 27 30 28 25 19 13 29 22 8 40 42 43 43
Wind_Direction
22 21 19 16 12 6 359 354 348 343 339 335 335 336 334 329 306 329 287 257 259 290 289 298 277 242 227 233 225 227 246 241 242 237 247 249 209 222 233 243 235 184 235 114 147
20 19 18 14 11 7 3 357 350 343 337 334 332 336 339 330 323 297 252 269 334 351 345 271 252 232 229 231 224 230 234 243 246 251 249 246 241 209 226 226 238 222 158 124 149
15 16 16 12 9 7 2 357 351 344 337 330 323 321 334 335 308 122 257 22 358 349 280 274 263 253 246 232 226 216 241 255 251 259 265 250 246 221 238 223 220 218 190 167 168
13 13 13 10 6 3 0 354 348 342 336 339 339 346 2 19 344 204 298 330 37 48 263 267 257 250 246 244 227 238 240 243 266 266 264 271 249 215 231 230 220 223 224 176 177
6 5 4 3 1 357 356 351 346 345 346 349 354 10 44 228 58 306 310 290 315 264 261 261 268 254 255 257 248 235 252 238 251 258 270 243 258 263 231 225 204 133 182 171 185
355 353 353 354 355 353 351 347 346 348 355 2 8 59 359 61 343 337 336 313 263 260 260 262 268 287 286 276 259 262 248 253 251 240 251 244 243 247 242 218 215 178 206 202 189
350 342 344 347 352 352 348 345 345 348 4 18 41 63 351 58 94 314 317 304 275 255 255 248 265 263 270 268 251 261 266 249 238 235 241 234 242 237 231 229 227 203 212 206 202
351 334 336 342 346 349 349 343 347 349 1 20 41 335 27 4 291 324 317 313 293 257 234 264 253 266 268 262 263 255 247 249 235 234 237 233 240 228 233 224 212 202 201 197 204
353 341 325 335 341 343 349 350 353 351 1 44 30 270 80 322 339 308 317 310 294 245 230 241 249 256 246 245 244 227 243 231 247 210 223 224 234 252 212 224 222 200 209 200 202
354 348 334 333 337 341 345 347 341 338 13 292 272 245 200 337 323 294 274 290 263 216 213 233 241 241 236 241 243 252 222 243 224 227 207 225 224 245 224 207 218 217 213 207 197
354 349 340 342 341 345 5 343 336 231 228 315 337 310 320 331 298 320 273 272 252 227 245 238 250 244 228 278 272 281 287 252 242 218 205 221 225 224 237 219 213 210 213 209 196
354 348 342 345 342 351 9 359 344 297 297 231 282 308 294 333 313 284 288 249 208 261 260 222 249 287 273 231 261 281 271 267 279 267 225 236 219 230 215 231 212 212 208 203 186
356 352 346 348 356 358 343 341 335 298 256 174 276 317 334 318 314 305 304 261 267 269 250 262 258 216 291 273 254 243 254 257 263 239 231 248 236 224 225 214 225 213 205 195 193
356 356 349 353 354 343 351 337 333 283 259 139 170 172 311 292 290 264 284 271 273 270 276 258 252 255 231 233 270 256 229 260 285 268 242 204 231 215 213 214 214 210 211 196 198
354 353 352 352 337 352 330 331 302 241 288 11 345 307 284 275 315 216 298 276 273 277 268 255 277 238 243 247 218 268 355 275 246 245 258 230 223 219 198 206 210 207 203 205 195
353 343 352 357 331 337 334 320 336 235 6 334 354 334 325 1 324 271 255 261 276 259 263 258 248 266 259 303 229 269 275 248 248 244 233 242 213 225 182 201 203 202 195 196 196
352 338 338 5 335 331 327 309 257 22 341 356 334 333 327 335 337 313 282 259 248 248 262 235 236 237 243 256 233 230 252 241 213 215 236 202 228 253 175 197 200 194 189 190 190
352 346 330 340 332 325 316 267 315 8 334 336 327 314 328 2 334 327 307 275 258 244 283 275 236 215 201 245 244 233 242 254 295 199 222 231 203 228 249 223 200 195 184 189 182
355 358 353 324 334 326 295 322 0 335 326 325 318 330 329 340 319 310 314 299 269 204 238 313 317 303 196 216 240 229 233 263 302 272 269 196 211 217 234 226 191 195 178 188 181
359 332 318 343 332 309 301 287 351 348 325 321 313 327 317 317 335 335 321 322 308 225 245 295 292 227 176 234 228 234 285 244 234 274 250 241 195 224 195 211 221 198 176 181 173
0 309 337 340 313 305 350 325 324 338 344 325 318 313 314 336 317 320 284 312 315 319 260 273 254 219 191 210 227 200 230 235 258 253 277 256 224 197 195 202 201 205 179 176 163
350 319 341 340 297 349 341 334 322 317 322 314 292 299 323 327 310 284 251 246 299 331 284 276 301 268 231 231 237 261 220 228 230 229 257 275 280 294 205 184 208 212 180 172 168
344 310 321 5 9 340 336 322 299 305 319 309 293 309 312 311 311 236 271 260 284 257 239 262 231 261 258 237 244 232 219 251 242 254 262 261 253 255 187 212 195 207 179 162 170
339 334 346 321 355 350 336 321 326 326 319 311 306 291 291 326 324 285 276 264 240 238 237 249 255 249 267 280 192 217 255 224 235 234 238 244 245 306 322 200 187 211 170 160 151
354 359 4 311 332 327 305 311 319 332 323 309 288 311 335 318 320 263 277 261 258 245 215 220 251 261 269 267 228 225 223 237 226 228 228 233 242 294 305 313 212 204 154 151 145
346 341 327 296 313 313 330 322 321 323 318 302 301 312 312 307 326 319 328 225 262 143 198 194 252 268 277 274 271 219 211 247 226 225 230 236 229 305 284 288 285 276 150 152 150
340 331 296 292 318 319 334 320 309 309 312 300 303 309 306 338 322 312 246 241 229 276 199 224 225 235 255 314 293 248 225 215 207 216 228 229 233 217 267 265 246 150 152 153 153
Height
1525 1523 1520 1518 1515 1513 1510 1507 1504 1501 1498 1495 1492 1491 1489 1487 1485 1486 1488 1485 1484 1481 1481 1483 1483 1482 1483 1480 1479 1478 1469 1457 1447 1443 1438 1431 1432 1442 1450 1447 1443 1447 1454 1458 1466
1526 1523 1521 1518 1515 1513 1510 1506 1503 1499 1496 1493 1491 1489 1487 1484 1483 1485 1483 1483 1481 1480 1482 1483 1480 1480 1478 1476 1474 1470 1464 1454 1446 1439 1435 1432 1433 1441 1446 1445 1444 1447 1453 1461 1467
1527 1524 1521 1518 1515 1512 1509 1505 1501 1497 1493 1490 1488 1486 1485 1483 1485 1482 1483 1482 1481 1480 1482 1483 1481 1479 1474 1470 1468 1465 1462 1453 1448 1442 1436 1431 1433 1440 1442 1440 1443 1447 1449 1459 1467
1528 1524 1521 1518 1515 1512 1508 1504 1499 1495 1491 1489 1486 1484 1483 1484 1478 1484 1483 1481 1481 1481 1483 1482 1480 1477 1471 1465 1464 1462 1458 1458 1453 1446 1442 1439 1438 1435 1441 1438 1441 1445 1446 1452 1463
1528 1524 1521 1518 1514 1511 1507 1503 1498 1494 1490 1488 1486 1484 1483 1485 1484 1483 1482 1481 1482 1484 1483 1481 1478 1473 1467 1462 1459 1457 1457 1456 1455 1451 1448 1448 1445 1440 1438 1440 1439 1442 1447 1449 1458
1528 1524 1521 1517 1514 1510 1506 1502 1497 1493 1490 1488 1485 1484 1486 1481 1485 1484 1484 1483 1483 1483 1481 1480 1477 1473 1469 1464 1458 1455 1454 1453 1453 1453 1452 1448 1448 1445 1439 1442 1439 1444 1448 1449 1456
1527 1523 1520 1516 1513 1510 1505 1501 1496 1493 1491 1488 1486 1485 1488 1488 1485 1485 1483 1483 1482 1481 1480 1478 1478 1477 1469 1464 1461 1459 1455 1454 1453 1450 1449 1451 1449 1441 1443 1440 1438 1443 1447 1449 1450
1525 1521 1518 1515 1512 1509 1505 1499 1496 1493 1491 1489 1487 1489 1486 1486 1485 1483 1483 1481 1480 1479 1479 1478 1479 1476 1470 1465 1460 1458 1455 1452 1444 1446 1446 1447 1439 1437 1440 1437 1437 1440 1445 1449 1449
1523 1518 1516 1514 1511 1507 1504 1499 1496 1493 1491 1489 1489 1491 1484 1484 1483 1482 1481 1480 1479 1478 1478 1479 1478 1474 1466 1464 1456 1449 1450 1445 1439 1433 1442 1439 1436 1429 1432 1432 1431 1436 1442 1445 1447
1521 1517 1514 1512 1509 1506 1502 1498 1495 1493 1491 1491 1491 1493 1485 1485 1483 1481 1480 1479 1478 1477 1477 1478 1473 1466 1460 1455 1445 1436 1432 1431 1426 1423 1426 1429 1431 1422 1424 1425 1430 1433 1436 1440 1445
1520 1515 1513 1511 1508 1505 1501 1496 1498 1496 1493 1489 1487 1485 1483 1484 1481 1479 1479 1478 1476 1475 1467 1469 1466 1459 1446 1452 1443 1448 1432 1423 1413 1413 1417 1421 1424 1424 1417 1419 1420 1425 1431 1435 1440
1519 1514 1512 1510 1506 1504 1501 1501 1500 1499 1490 1487 1487 1485 1485 1484 1479 1476 1478 1477 1471 1465 1464 1466 1463 1456 1451 1455 1451 1443 1440 1435 1422 1415 1418 1416 1419 1417 1417 1418 1418 1421 1426 1430 1436
1518 1513 1511 1509 1505 1502 1502 1500 1497 1496 1489 1481 1483 1483 1482 1482 1478 1474 1477 1472 1468 1462 1459 1464 1456 1457 1456 1457 1452 1447 1447 1438 1429 1421 1425 1423 1420 1414 1411 1412 1416 1414 1419 1425 1430
1517 1513 1511 1508 1505 1504 1502 1499 1497 1494 1482 1476 1476 1479 1478 1475 1472 1474 1472 1472 1466 1459 1456 1457 1450 1453 1454 1458 1448 1443 1435 1434 1433 1432 1425 1417 1418 1408 1404 1406 1408 1412 1415 1420 1427
1515 1512 1510 1506 1505 1504 1502 1497 1495 1495 1476 1470 1472 1476 1473 1475 1471 1471 1472 1470 1464 1460 1461 1450 1451 1449 1451 1445 1450 1443 1437 1438 1436 1431 1423 1401 1412 1375 1394 1400 1402 1405 1412 1416 1421
1514 1511 1509 1507 1504 1503 1499 1495 1495 1487 1480 1470 1469 1470 1466 1465 1467 1469 1469 1471 1465 1462 1455 1453 1452 1447 1444 1446 1446 1448 1441 1438 1431 1424 1423 1401 1399 1380 1380 1388 1391 1398 1405 1414 1415
1513 1510 1507 1506 1506 1501 1497 1495 1484 1486 1473 1471 1473 1470 1464 1466 1463 1464 1465 1463 1464 1464 1446 1445 1442 1443 1445 1445 1440 1444 1441 1432 1429 1421 1413 1390 1396 1374 1360 1372 1377 1385 1395 1407 1410
1511 1508 1508 1507 1504 1499 1496 1489 1489 1478 1480 1479 1475 1468 1467 1469 1464 1461 1457 1456 1451 1449 1449 1438 1438 1433 1436 1441 1436 1431 1431 1424 1433 1408 1392 1378 1392 1377 1365 1365 1372 1380 1390 1401 1405
1511 1510 1510 1507 1501 1497 1495 1490 1491 1489 1486 1482 1473 1468 1463 1465 1465 1461 1453 1448 1445 1448 1452 1435 1431 1427 1430 1435 1434 1431 1431 1418 1438 1402 1395 1371 1374 1369 1365 1368 1367 1374 1385 1395 1401
1511 1511 1508 1504 1500 1498 1490 1501 1488 1490 1489 1484 1478 1473 1473 1461 1465 1459 1455 1449 1448 1445 1447 1438 1439 1424 1427 1433 1432 1428 1431 1430 1424 1423 1404 1376 1373 1377 1374 1371 1368 1369 1378 1390 1399
1513 1510 1508 1505 1500 1494 1492 1492 1489 1490 1490 1488 1480 1477 1469 1467 1469 1466 1467 1458 1459 1453 1445 1441 1438 1430 1425 1430 1423 1427 1426 1423 1415 1409 1402 1391 1371 1355 1361 1371 1372 1369 1375 1386 1398
1517 1507 1508 1504 1498 1495 1491 1495 1497 1490 1488 1484 1480 1472 1469 1468 1464 1473 1466 1465 1464 1462 1455 1446 1440 1434 1427 1417 1417 1421 1418 1419 1424 1418 1405 1395 1378 1349 1356 1362 1369 1368 1372 1383 1396
1520 1512 1508 1507 1505 1504 1498 1495 1491 1489 1486 1482 1479 1474 1471 1468 1469 1472 1465 1461 1463 1462 1458 1450 1443 1436 1422 1423 1419 1417 1421 1423 1413 1411 1407 1402 1387 1355 1353 1359 1367 1368 1370 1380 1394
1523 1511 1508 1504 1504 1506 1502 1493 1490 1487 1485 1482 1478 1472 1465 1462 1463 1463 1460 1458 1456 1455 1457 1459 1441 1431 1426 1418 1423 1433 1423 1412 1415 1416 1407 1395 1375 1369 1370 1360 1363 1366 1370 1383 1397
1528 1520 1521 1509 1505 1507 1502 1495 1487 1485 1486 1481 1472 1465 1464 1461 1460 1461 1455 1455 1451 1450 1452 1452 1445 1430 1422 1413 1415 1427 1425 1414 1403 1404 1404 1389 1386 1394 1394 1375 1362 1365 1373 1393 1404
1538 1533 1524 1514 1510 1500 1495 1490 1490 1486 1485 1477 1474 1468 1462 1457 1452 1445 1446 1448 1448 1440 1447 1449 1441 1429 1416 1406 1403 1413 1422 1410 1398 1399 1393 1391 1393 1412 1403 1387 1370 1373 1375 1394 1404
1538 1536 1529 1511 1499 1496 1491 1493 1490 1485 1480 1478 1472 1466 1456 1450 1448 1443 1442 1444 1443 1436 1440 1437 1437 1429 1416 1413 1406 1406 1390 1389 1386 1390 1388 1392 1397 1411 1407 1386 1372 1374 1380 1392 1404